Flag for Germany Weather past 2 weeks in Weißenfels, Saxony-Anhalt, Germany

Now
25 °F

Passing clouds.


Feels Like: 17 °F
Forecast: 18 / 26 °F
Wind: 8 mph from Northeast

Location: Leipzig-Schkeuditz

Current Time: Dec 27, 2014 at 9:59:11 PM

Latest Report: Dec 27, 2014 at 9:00 PM


Visibility: 13 mi

Pressure: 29.77 "Hg

Humidity: 89%

Dew point: 23 °F

Location of WeißenfelsLocation

Historic Weather in Weißenfels — Graph

°F

Weißenfels temperature yesterday

Maximum temperature yesterday: 33 °F (at 2:00 AM)
Minimum temperature yesterday: 25 °F (at 11:00 PM)
Average temperature yesterday: 31 °F

Past Weeks' High & Low Weather Summary

 TemperatureHumidityPressure
High54 °F (Dec 19, 12:00 AM)100% (Dec 15, 5:00 AM)30.36 "Hg (Dec 15, 5:00 AM)
Low24 °F (Dec 27, 9:00 AM)63% (Dec 15, 1:00 PM)29.47 "Hg (Dec 12, 9:00 PM)
Average41 °F84%29.97 "Hg
* Reported Dec 12 9:00 PM — Dec 27 9:00 PM, Weißenfels, Weather by CustomWeather, © 2014

Note: Actual official high and low records may vary slightly from our data, if they occured in-between our weather recording intervals... More about our weather records

Advertising

Weißenfels weather history for previous 24 hours

 ConditionsComfort  
Time TempWeatherWind HumidityBarometerVisibility
9:00 PM
Dec 27
25 °FPassing clouds.8 mph89%29.77 "Hg12 mi
8:00 PM26 °FOvercast.8 mph85%29.75 "Hg19 mi
7:00 PM26 °FOvercast.8 mph86%29.74 "Hg25 mi
6:00 PM26 °FOvercast.8 mph84%29.74 "Hg25 mi
5:00 PM27 °FOvercast.7 mph82%29.73 "Hg25 mi
3:00 PM29 °FOvercast.7 mph81%29.74 "Hg28 mi
2:00 PM29 °FOvercast.6 mph84%29.75 "Hg31 mi
1:00 PM30 °FOvercast.7 mph78%29.77 "Hg31 mi
12:00 PM29 °FOvercast.7 mph77%29.80 "Hg31 mi
11:00 AM27 °FOvercast.6 mph82%29.83 "Hg31 mi
9:00 AM24 °FPartly sunny.5 mph90%29.89 "Hg28 mi
8:00 AM25 °FPassing clouds.3 mph89%29.92 "Hg28 mi
7:00 AM25 °FPassing clouds.3 mph92%29.95 "Hg31 mi
6:00 AM25 °FPassing clouds.6 mph93%30.01 "Hg31 mi
5:00 AM25 °FClear.5 mph94%30.05 "Hg31 mi
3:00 AM25 °FPassing clouds.5 mph96%30.13 "Hg31 mi
2:00 AM25 °FClear.3 mph95%30.16 "Hg31 mi
1:00 AM26 °FPassing clouds.3 mph96%30.19 "Hg31 mi
12:00 AM25 °FPassing clouds.3 mph91%30.22 "Hg31 mi
11:00 PM
Dec 26
25 °FPassing clouds.3 mph89%30.25 "Hg31 mi
9:00 PM28 °FPassing clouds.3 mph88%30.29 "Hg31 mi
Weather by CustomWeather, © 2014

See weather overviewHow to use our weather pages